Hourly Weather Odesa

Today, 16 July, Thursday

Time Temperature Precipitation Wind Pressure Humidity
00:00 +19°C° 0 mm 4 mps 756 mmHg 64%
01:00 +19°C° 0 mm 3 mps 756 mmHg 65%
02:00 +19°C° 0 mm 3 mps 756 mmHg 66%
03:00 +18°C° 0 mm 2 mps 756 mmHg 67%
04:00 +18°C° 0 mm 2 mps 756 mmHg 67%
05:00 +19°C° 0 mm 1 mps 755 mmHg 68%
06:00 +20°C° 0 mm 1 mps 755 mmHg 63%
07:00 +22°C° 0 mm 1 mps 756 mmHg 58%
08:00 +23°C° 0 mm 1 mps 756 mmHg 53%
09:00 +24°C° 0 mm 1 mps 755 mmHg 50%
10:00 +25°C° 0 mm 2 mps 755 mmHg 47%
11:00 +26°C° 0 mm 2 mps 755 mmHg 44%
12:00 +27°C° 0 mm 3 mps 755 mmHg 44%
13:00 +27°C° 0 mm 3 mps 755 mmHg 45%
14:00 +27°C° 0 mm 4 mps 754 mmHg 45%
15:00 +27°C° 0 mm 4 mps 754 mmHg 47%
16:00 +26°C° 0 mm 3 mps 754 mmHg 49%
17:00 +26°C° 0 mm 3 mps 753 mmHg 51%
18:00 +25°C° 0 mm 3 mps 754 mmHg 54%
19:00 +24°C° 0 mm 3 mps 754 mmHg 57%
20:00 +22°C° 0 mm 3 mps 754 mmHg 61%
21:00 +23°C° 0 mm 2 mps 754 mmHg 61%
22:00 +23°C° 0 mm 2 mps 754 mmHg 61%
23:00 +21°C° 0 mm 2 mps 754 mmHg 62%

Tomorrow, 17 July, Friday

Time Temperature Precipitation Wind Pressure Humidity
00:00 +21°C° 0 mm 2 mps 754 mmHg 62%
01:00 +20°C° 0 mm 2 mps 754 mmHg 63%
02:00 +20°C° 0 mm 2 mps 754 mmHg 64%
03:00 +20°C° 0 mm 2 mps 754 mmHg 65%
04:00 +20°C° 0 mm 2 mps 753 mmHg 66%
05:00 +20°C° 0 mm 2 mps 753 mmHg 67%
06:00 +21°C° 0 mm 2 mps 754 mmHg 61%
07:00 +24°C° 0 mm 2 mps 754 mmHg 56%
08:00 +25°C° 0 mm 2 mps 754 mmHg 50%
09:00 +27°C° 0 mm 2 mps 754 mmHg 46%
10:00 +28°C° 0 mm 2 mps 754 mmHg 42%
11:00 +29°C° 0 mm 2 mps 754 mmHg 37%
12:00 +29°C° 0 mm 2 mps 754 mmHg 36%
13:00 +29°C° 0 mm 2 mps 754 mmHg 36%
14:00 +29°C° 0 mm 3 mps 754 mmHg 35%
15:00 +29°C° 0 mm 2 mps 754 mmHg 35%
16:00 +29°C° 0 mm 2 mps 754 mmHg 36%
17:00 +29°C° 0 mm 1 mps 753 mmHg 37%
18:00 +28°C° 0 mm 1 mps 754 mmHg 39%
19:00 +27°C° 0 mm 1 mps 754 mmHg 41%
20:00 +26°C° 0 mm 1 mps 754 mmHg 43%
21:00 +25°C° 0 mm 2 mps 754 mmHg 44%
22:00 +25°C° 0 mm 2 mps 754 mmHg 45%
23:00 +24°C° 0 mm 3 mps 755 mmHg 47%

Day after tomorrow, 18 July, Saturday

Time Temperature Precipitation Wind Pressure Humidity
00:00 +24°C° 0 mm 3 mps 755 mmHg 49%
01:00 +22°C° 0 mm 3 mps 755 mmHg 52%
02:00 +22°C° 0 mm 3 mps 755 mmHg 54%
03:00 +22°C° 0 mm 3 mps 755 mmHg 56%
04:00 +22°C° 0 mm 3 mps 755 mmHg 59%
05:00 +21°C° 0 mm 3 mps 755 mmHg 61%
06:00 +24°C° 0 mm 3 mps 755 mmHg 57%
07:00 +25°C° 0 mm 4 mps 755 mmHg 54%
08:00 +27°C° 0 mm 4 mps 755 mmHg 50%
09:00 +28°C° 0 mm 4 mps 755 mmHg 47%
10:00 +28°C° 0 mm 4 mps 755 mmHg 45%
11:00 +29°C° 0 mm 4 mps 755 mmHg 42%
12:00 +29°C° 0 mm 3 mps 755 mmHg 41%
13:00 +30°C° 0 mm 3 mps 755 mmHg 40%
14:00 +30°C° 0 mm 2 mps 755 mmHg 39%
15:00 +30°C° 0 mm 2 mps 755 mmHg 38%
16:00 +30°C° 0 mm 2 mps 755 mmHg 38%
17:00 +30°C° 0 mm 2 mps 754 mmHg 38%
18:00 +29°C° 0 mm 3 mps 754 mmHg 44%
19:00 +27°C° 0 mm 3 mps 755 mmHg 50%
20:00 +26°C° 0 mm 3 mps 755 mmHg 57%
21:00 +25°C° 0 mm 4 mps 755 mmHg 61%
22:00 +25°C° 0 mm 4 mps 755 mmHg 65%
23:00 +25°C° 0 mm 4 mps 755 mmHg 69%

19 July, Sunday

Time Temperature Precipitation Wind Pressure Humidity
00:00 +23°C° 0 mm 4 mps 755 mmHg 70%
01:00 +23°C° 0 mm 4 mps 755 mmHg 71%
02:00 +22°C° 0 mm 4 mps 755 mmHg 72%
03:00 +22°C° 0 mm 4 mps 754 mmHg 72%
04:00 +22°C° 0 mm 4 mps 754 mmHg 73%
05:00 +22°C° 0 mm 5 mps 754 mmHg 73%
06:00 +23°C° 0 mm 5 mps 754 mmHg 68%
07:00 +24°C° 0 mm 6 mps 754 mmHg 63%
08:00 +26°C° 0 mm 6 mps 754 mmHg 58%
09:00 +27°C° 0 mm 6 mps 754 mmHg 54%
10:00 +28°C° 0 mm 5 mps 754 mmHg 50%
11:00 +29°C° 0 mm 5 mps 754 mmHg 47%
12:00 +30°C° 0 mm 4 mps 754 mmHg 44%
13:00 +30°C° 0 mm 4 mps 754 mmHg 42%
14:00 +30°C° 0 mm 3 mps 754 mmHg 40%
15:00 +30°C° 0 mm 3 mps 753 mmHg 39%
16:00 +30°C° 0 mm 2 mps 753 mmHg 39%
17:00 +30°C° 0 mm 2 mps 753 mmHg 38%
18:00 +29°C° 0 mm 2 mps 753 mmHg 43%
19:00 +28°C° 0 mm 1 mps 753 mmHg 47%
20:00 +26°C° 0 mm 1 mps 753 mmHg 51%
21:00 +26°C° 0 mm 1 mps 753 mmHg 53%
22:00 +25°C° 0 mm 1 mps 753 mmHg 55%
23:00 +24°C° 0 mm 1 mps 753 mmHg 57%

20 July, Monday

Time Temperature Precipitation Wind Pressure Humidity
00:00 +24°C° 0 mm 1 mps 753 mmHg 58%
01:00 +24°C° 0 mm 1 mps 753 mmHg 59%
02:00 +23°C° 0 mm 1 mps 753 mmHg 59%
03:00 +23°C° 0 mm 1 mps 753 mmHg 61%
04:00 +23°C° 0 mm 1 mps 753 mmHg 64%
05:00 +23°C° 0 mm 2 mps 752 mmHg 66%
06:00 +25°C° 0 mm 2 mps 752 mmHg 62%
07:00 +26°C° 0 mm 3 mps 752 mmHg 58%
08:00 +28°C° 0 mm 3 mps 752 mmHg 55%
09:00 +28°C° 0 mm 3 mps 752 mmHg 52%
10:00 +29°C° 0 mm 3 mps 752 mmHg 50%
11:00 +30°C° 0 mm 3 mps 752 mmHg 47%
12:00 +30°C° 0 mm 3 mps 751 mmHg 46%
13:00 +30°C° 0 mm 3 mps 751 mmHg 46%
14:00 +31°C° 0 mm 3 mps 750 mmHg 45%
15:00 +30°C° 0 mm 4 mps 750 mmHg 46%
16:00 +30°C° 0 mm 4 mps 750 mmHg 48%
17:00 +30°C° 0 mm 4 mps 749 mmHg 50%
18:00 +28°C° 0 mm 4 mps 749 mmHg 55%
19:00 +27°C° 0 mm 3 mps 750 mmHg 60%
20:00 +26°C° 0 mm 3 mps 750 mmHg 65%
21:00 +24°C° 1 mm 3 mps 750 mmHg 71%
22:00 +22°C° 1 mm 4 mps 750 mmHg 76%
23:00 +21°C° 1 mm 5 mps 750 mmHg 81%

21 July, Tuesday

Time Temperature Precipitation Wind Pressure Humidity
00:00 +20°C° 0 mm 5 mps 749 mmHg 83%
01:00 +20°C° 0 mm 4 mps 749 mmHg 84%
02:00 +20°C° 0 mm 4 mps 749 mmHg 86%
03:00 +19°C° 0 mm 5 mps 749 mmHg 88%
04:00 +19°C° 0 mm 6 mps 749 mmHg 90%
05:00 +19°C° 0 mm 6 mps 749 mmHg 91%
06:00 +20°C° 0 mm 7 mps 749 mmHg 84%
07:00 +22°C° 0 mm 7 mps 750 mmHg 78%
08:00 +23°C° 0 mm 7 mps 750 mmHg 71%
09:00 +26°C° 0 mm 7 mps 750 mmHg 63%
10:00 +27°C° 0 mm 6 mps 750 mmHg 56%
11:00 +29°C° 0 mm 6 mps 750 mmHg 49%
12:00 +29°C° 0 mm 6 mps 750 mmHg 47%
13:00 +30°C° 0 mm 5 mps 750 mmHg 45%
14:00 +32°C° 0 mm 5 mps 750 mmHg 43%
15:00 +32°C° 0 mm 5 mps 750 mmHg 44%
16:00 +32°C° 0 mm 5 mps 750 mmHg 44%
17:00 +30°C° 0 mm 6 mps 750 mmHg 44%
18:00 +29°C° 0 mm 5 mps 751 mmHg 49%
19:00 +28°C° 0 mm 5 mps 751 mmHg 53%
20:00 +27°C° 0 mm 5 mps 751 mmHg 58%
21:00 +26°C° 0 mm 5 mps 752 mmHg 62%
22:00 +25°C° 0 mm 4 mps 752 mmHg 65%
23:00 +25°C° 0 mm 4 mps 753 mmHg 69%
Show more